TimeMST,TemperatureF,Dew PointF,Humidity,Sea Level PressureIn,VisibilityMPH,Wind Direction,Wind SpeedMPH,Gust SpeedMPH,PrecipitationIn,Events,Conditions,WindDirDegrees,DateUTC
12:15 AM,51.8,26.6,38,30.01,10.0,SE,11.5,-,N/A,,Clear,130,2013-03-06 07:15:00
12:35 AM,50.0,24.8,37,30.01,10.0,SE,10.4,-,N/A,,Clear,140,2013-03-06 07:35:00
12:55 AM,50.0,24.8,37,30.01,10.0,SE,9.2,-,N/A,,Clear,130,2013-03-06 07:55:00
1:15 AM,50.0,24.8,37,30.00,10.0,North,4.6,-,N/A,,Clear,360,2013-03-06 08:15:00
1:35 AM,51.8,26.6,38,29.99,10.0,SSE,4.6,-,N/A,,Clear,150,2013-03-06 08:35:00
1:55 AM,51.8,24.8,35,29.99,10.0,SSE,5.8,-,N/A,,Clear,150,2013-03-06 08:55:00
2:15 AM,48.2,24.8,40,30.00,10.0,SW,5.8,-,N/A,,Clear,220,2013-03-06 09:15:00
2:35 AM,48.2,26.6,43,29.99,10.0,SE,6.9,-,N/A,,Clear,140,2013-03-06 09:35:00
2:55 AM,48.2,26.6,43,29.98,10.0,SE,9.2,-,N/A,,Clear,130,2013-03-06 09:55:00
3:15 AM,48.2,26.6,43,29.97,10.0,ESE,10.4,-,N/A,,Clear,120,2013-03-06 10:15:00
3:35 AM,48.2,26.6,43,29.97,10.0,ESE,13.8,-,N/A,,Clear,120,2013-03-06 10:35:00
3:55 AM,48.2,26.6,43,29.97,10.0,ESE,15.0,-,N/A,,Clear,110,2013-03-06 10:55:00
4:15 AM,48.2,26.6,43,29.97,10.0,ESE,13.8,-,N/A,,Clear,110,2013-03-06 11:15:00
4:35 AM,48.2,26.6,43,29.97,10.0,ESE,13.8,-,N/A,,Clear,110,2013-03-06 11:35:00
4:55 AM,48.2,26.6,43,29.97,10.0,ESE,16.1,-,N/A,,Clear,120,2013-03-06 11:55:00
5:15 AM,48.2,24.8,40,29.98,10.0,ESE,13.8,-,N/A,,Clear,120,2013-03-06 12:15:00
5:35 AM,48.2,24.8,40,29.99,10.0,SSE,5.8,-,N/A,,Clear,160,2013-03-06 12:35:00
5:55 AM,46.4,26.6,46,29.99,10.0,SSW,5.8,-,N/A,,Clear,210,2013-03-06 12:55:00
6:15 AM,46.4,26.6,46,30.00,10.0,South,6.9,-,N/A,,Clear,170,2013-03-06 13:15:00
6:35 AM,48.2,24.8,40,30.00,10.0,ESE,12.7,-,N/A,,Clear,120,2013-03-06 13:35:00
6:55 AM,48.2,24.8,40,30.00,10.0,ESE,16.1,-,N/A,,Clear,110,2013-03-06 13:55:00
7:15 AM,48.2,24.8,40,30.00,10.0,ESE,12.7,-,N/A,,Clear,110,2013-03-06 14:15:00
7:35 AM,48.2,24.8,40,30.00,10.0,ESE,13.8,-,N/A,,Clear,110,2013-03-06 14:35:00
7:55 AM,48.2,26.6,43,30.01,10.0,SSE,8.1,-,N/A,,Clear,160,2013-03-06 14:55:00
8:15 AM,48.2,26.6,43,30.01,10.0,SSE,6.9,-,N/A,,Clear,160,2013-03-06 15:15:00
8:35 AM,50.0,26.6,40,30.03,10.0,ESE,9.2,-,N/A,,Clear,110,2013-03-06 15:35:00
8:55 AM,53.6,28.4,38,30.03,10.0,ESE,11.5,-,N/A,,Clear,110,2013-03-06 15:55:00
9:15 AM,55.4,28.4,36,30.02,10.0,ESE,12.7,-,N/A,,Clear,120,2013-03-06 16:15:00
9:35 AM,59.0,30.2,34,30.01,10.0,SE,12.7,-,N/A,,Clear,130,2013-03-06 16:35:00
9:55 AM,60.8,30.2,31,30.00,10.0,SE,11.5,-,N/A,,Clear,140,2013-03-06 16:55:00
10:15 AM,60.8,30.2,31,30.00,10.0,South,11.5,-,N/A,,Clear,170,2013-03-06 17:15:00
10:35 AM,62.6,30.2,30,30.00,10.0,SSW,16.1,21.9,N/A,,Clear,200,2013-03-06 17:35:00
10:55 AM,64.4,30.2,28,29.99,10.0,SSW,15.0,24.2,N/A,,Clear,210,2013-03-06 17:55:00
11:15 AM,64.4,28.4,26,29.98,10.0,SSW,16.1,23.0,N/A,,Clear,210,2013-03-06 18:15:00
11:35 AM,66.2,28.4,24,29.96,10.0,South,19.6,25.3,N/A,,Clear,190,2013-03-06 18:35:00
11:55 AM,66.2,26.6,23,29.96,10.0,SSW,18.4,24.2,N/A,,Clear,200,2013-03-06 18:55:00
12:15 PM,68.0,26.6,21,29.95,10.0,South,21.9,29.9,N/A,,Clear,180,2013-03-06 19:15:00
12:35 PM,68.0,26.6,21,29.95,10.0,WSW,19.6,25.3,N/A,,Clear,240,2013-03-06 19:35:00
12:55 PM,66.2,26.6,23,29.94,10.0,West,11.5,18.4,N/A,,Clear,270,2013-03-06 19:55:00
2:15 PM,69.8,24.8,18,29.89,10.0,SSW,18.4,29.9,N/A,,Clear,210,2013-03-06 21:15:00
2:35 PM,69.8,23.0,17,29.88,10.0,South,23.0,28.8,N/A,,Clear,190,2013-03-06 21:35:00
2:55 PM,69.8,21.2,16,29.87,10.0,South,24.2,28.8,N/A,,Clear,190,2013-03-06 21:55:00
3:15 PM,69.8,23.0,17,29.88,10.0,WSW,19.6,34.5,N/A,,Clear,240,2013-03-06 22:15:00
3:35 PM,69.8,23.0,17,29.87,10.0,SSW,23.0,28.8,N/A,,Clear,210,2013-03-06 22:35:00
3:55 PM,69.8,21.2,16,29.86,10.0,SW,25.3,31.1,N/A,,Clear,220,2013-03-06 22:55:00
4:15 PM,69.8,19.4,15,29.86,10.0,SW,25.3,34.5,N/A,,Clear,220,2013-03-06 23:15:00
4:35 PM,68.0,19.4,16,29.86,10.0,SSW,24.2,28.8,N/A,,Clear,210,2013-03-06 23:35:00
4:55 PM,69.8,19.4,15,29.86,10.0,SW,27.6,-,N/A,,Clear,220,2013-03-06 23:55:00
5:15 PM,66.2,17.6,15,29.87,10.0,SSW,25.3,31.1,N/A,,Clear,210,2013-03-07 00:15:00
5:35 PM,66.2,17.6,15,29.87,10.0,SW,25.3,31.1,N/A,,Clear,220,2013-03-07 00:35:00
5:55 PM,66.2,17.6,15,29.87,10.0,SW,18.4,-,N/A,,Clear,230,2013-03-07 00:55:00
6:15 PM,64.4,17.6,16,29.87,10.0,SSW,16.1,-,N/A,,Clear,210,2013-03-07 01:15:00
6:35 PM,64.4,17.6,16,29.87,10.0,SSW,12.7,-,N/A,,Clear,210,2013-03-07 01:35:00
6:55 PM,62.6,17.6,18,29.88,10.0,SSW,10.4,-,N/A,,Clear,210,2013-03-07 01:55:00
7:35 PM,60.8,17.6,19,29.89,10.0,SSW,4.6,-,N/A,,Clear,200,2013-03-07 02:35:00
7:55 PM,57.2,17.6,21,29.89,10.0,SSE,6.9,-,N/A,,Clear,150,2013-03-07 02:55:00
8:35 PM,57.2,19.4,23,29.89,10.0,SSE,10.4,-,N/A,,Clear,150,2013-03-07 03:35:00
8:55 PM,55.4,19.4,25,29.89,10.0,ESE,11.5,-,N/A,,Clear,120,2013-03-07 03:55:00
9:15 PM,57.2,19.4,23,29.89,10.0,SE,13.8,-,N/A,,Clear,140,2013-03-07 04:15:00
9:35 PM,59.0,21.2,23,29.90,10.0,South,12.7,-,N/A,,Clear,170,2013-03-07 04:35:00
9:55 PM,59.0,19.4,22,29.90,10.0,South,10.4,-,N/A,,Clear,170,2013-03-07 04:55:00
10:15 PM,57.2,19.4,23,29.91,10.0,South,9.2,-,N/A,,Clear,170,2013-03-07 05:15:00
10:35 PM,57.2,21.2,25,29.91,10.0,South,11.5,17.3,N/A,,Clear,180,2013-03-07 05:35:00
10:55 PM,57.2,21.2,25,29.91,10.0,South,11.5,-,N/A,,Clear,190,2013-03-07 05:55:00
11:15 PM,57.2,21.2,25,29.91,10.0,South,12.7,-,N/A,,Clear,170,2013-03-07 06:15:00
11:35 PM,57.2,21.2,25,29.92,10.0,WSW,12.7,-,N/A,,Clear,240,2013-03-07 06:35:00
11:55 PM,55.4,21.2,26,29.92,10.0,SW,10.4,-,N/A,,Clear,230,2013-03-07 06:55:00